Regional Weather Roundup
Issued by NWS

Home | Current Version | Previous Version | Graphics & Text | Print | Product List | Glossary On
Versions: 1 2 3 4 5 6 7 8 9 10 11 12 13 14 15 16 17 18 19 20 21 22 23 24 25 26 27 28 29 30 31 32 33 34 35 36 37 38 39 40 41 42 43 44 45 46 47 48 49 50
812
ASUS45 KCYS 270310
RWRWY

WYOMING REGIONAL WEATHER ROUNDUP
NATIONAL WEATHER SERVICE CHEYENNE WY
800 PM MST SUN FEB 26 2017

NOTE:  "FAIR" INDICATES FEW OR NO CLOUDS BELOW 12,000 FEET
WITH NO SIGNIFICANT WEATHER AND/OR OBSTRUCTIONS TO VISIBILITY.

WYZ001-270400-
YELLOWSTONE NATIONAL PARK

CITY           SKY/WX    TMP DP  RH WIND       PRES   REMARKS
LK YELLOWSTONE   N/A     11   8  88 CALM      29.59F
W YELLOWSTONE  NOT AVBL

$$
WYZ002>013-054>058-071-098>099-270400-
NORTHERN WYOMING

CITY           SKY/WX    TMP DP  RH WIND       PRES   REMARKS
JACKSON        CLOUDY    18  16  93 S16       29.65F WCI   3
CODY           FAIR      28   5  37 W9        29.63F WCI  19
GREYBULL       MOCLDY    27  13  55 SE3       29.67F
WORLAND        FAIR      23  14  68 SE9       29.68R WCI  13
SHERIDAN       FAIR      26  13  57 S10       29.65F WCI  16
BUFFALO        FAIR      20   3  48 W8        29.65F WCI  10
GILLETTE       FAIR      24  12  60 SW14      29.67F WCI  12
HULETT         FAIR      27  12  54 S10       29.71F WCI  17
NEWCASTLE      FAIR      21  12  68 E6        29.75F WCI  14

$$
WYZ014>020-022>026-101>103-270400-
CENTRAL WYOMING

CITY           SKY/WX    TMP DP  RH WIND       PRES   REMARKS
BIG PINEY      CLOUDY     5   0  79 NE6       29.71F WCI  -6
PINEDALE       MOCLDY     5   0  78 E3        29.72F
DUBOIS         MOCLDY    14   3  62 N15G21    29.59F WCI  -1
LANDER         FAIR      14  -1  51 NW5       29.65S WCI   6
RIVERTON       FAIR      12   3  67 NE5       29.66S WCI   4
CASPER         FAIR      17   5  59 W13       29.68F WCI   4
DOUGLAS        FAIR      20   1  43 CALM      29.72F

$$
WYZ021-027>030-104>119-270400-
SOUTHERN WYOMING

CITY           SKY/WX    TMP DP  RH WIND       PRES   REMARKS
EVANSTON       MOCLDY    20   7  57 SW5       29.66F WCI  13
FORT BRIDGER   MOCLDY    12   4  69 S7        29.72S WCI   1
ROCK SPRINGS   FAIR      14  -2  49 SE8       29.72F WCI   3
DIXON            N/A     12   3  65 NE7       29.79F WCI   2
RAWLINS        FAIR      13   2  61 SW5       29.73F WCI   5
SARATOGA       FAIR      10   0  61 CALM      29.73F
LARAMIE        FAIR      20   3  48 SW15      29.71S WCI   6
CHEYENNE       FAIR      13   5  70 W7        29.76R WCI   3
TORRINGTON     FAIR      15   5  64 NE3       29.79S
PINE BLUFFS    FAIR      21  12  68 S12       29.79S WCI   9

$$




USA.gov is the U.S. government's official web portal to all federal, state and local government web resources and services.